Home   Weather   Paradise   Past weeks

Flag for USA Past Weather in Paradise, Nevada, USA — Yesterday and Last 2 Weeks

Now
48 °F

Mostly cloudy.


Feels Like: 45 °F
Forecast: 43 / 51 °F
Wind: 6 mph from South

Location: McCarran International Airport

Current Time: Jan 22, 2017 at 12:31:21 am

Latest Report: Jan 21, 2017 at 11:56 pm


Visibility: 10 mi

Pressure: 29.98 "Hg (27.74 "Hg at 643m altitude)

Humidity: 52%

Dew Point: 31 °F

Location of ParadiseLocation

Past Weather in Paradise — Graph

°F

Paradise Temperature Yesterday

Maximum temperature yesterday: 57 °F (at 1:56 pm)
Minimum temperature yesterday: 44 °F (at 4:56 am)
Average temperature yesterday: 49 °F

High & Low Weather Summary for the Past Weeks

 TemperatureHumidityPressure
High66 °F (Jan 9, 12:56 pm)89% (Jan 13, 5:56 am)30.37 "Hg (Jan 13, 5:56 am)
Low36 °F (Jan 6, 11:56 pm)19% (Jan 17, 1:56 pm)29.26 "Hg (Jan 20, 7:56 pm)
Average51 °F49%29.96 "Hg
* Reported Jan 6 10:56 pm — Jan 21 10:56 pm, Paradise, Weather by CustomWeather, © 2017

Note: Actual official high and low records may vary slightly from our data, if they occured in-between our weather recording intervals... More about our weather records

Advertising

Paradise Weather History for the Previous 24 Hours

Scroll right to see more
 ConditionsComfort  
Time TempWeatherWind HumidityBarometerVisibility
10:56 pm
Sat, Jan 21
48 °FMostly cloudy.6 mph54%30.00 "Hg10 mi
9:56 pm47 °FMostly cloudy.8 mph56%29.99 "Hg10 mi
8:56 pm47 °FPassing clouds.6 mph54%29.98 "Hg10 mi
7:56 pm48 °FPassing clouds.6 mph50%29.95 "Hg10 mi
6:56 pm49 °FClear.5 mph48%29.93 "Hg10 mi
5:56 pm51 °FPassing clouds.6 mph42%29.89 "Hg10 mi
4:56 pm53 °FPassing clouds.9 mph37%29.85 "Hg10 mi
3:56 pm55 °FPassing clouds.12 mph33%29.83 "Hg10 mi
2:56 pm56 °FPassing clouds.12 mph32%29.78 "Hg10 mi
1:56 pm57 °FPassing clouds.5 mph32%29.75 "Hg10 mi
12:56 pm56 °FPassing clouds.3 mph34%29.73 "Hg10 mi
11:56 am55 °FPassing clouds.5 mph34%29.71 "Hg10 mi
10:56 am53 °FPassing clouds.8 mph38%29.72 "Hg10 mi
9:56 am50 °FPassing clouds.8 mph46%29.69 "Hg10 mi
8:56 am48 °FPassing clouds.8 mph50%29.64 "Hg10 mi
7:56 am45 °FPassing clouds.7 mph56%29.59 "Hg10 mi
6:56 am44 °FScattered clouds.9 mph55%29.54 "Hg10 mi
5:56 am44 °FPartly cloudy.7 mph58%29.49 "Hg10 mi
4:56 am44 °FPartly cloudy.7 mph58%29.43 "Hg10 mi
3:56 am45 °FPassing clouds.8 mph56%29.40 "Hg10 mi
2:56 am47 °FPassing clouds.12 mph48%29.38 "Hg10 mi
1:56 am47 °FPassing clouds.14 mph50%29.35 "Hg10 mi
12:56 am47 °FPassing clouds.14 mph56%29.30 "Hg10 mi
Weather by CustomWeather, © 2017

See weather overviewHow to use our weather pages